This demonstration page uses our WeatherBlox Daily Observations layout. Learn more.

Left ArrowRight Arrow

40.97296, -117.73568

Hourly Observations for August 15, 2020

Temp ( °F °C ) Dew Point ( °F °C ) Humidity (%) Winds ( mph kmh ) Pressure ( in mb ) Visibility ( mi km ) Precip ( " mm )
1:56 am 01:56 Clear 76 24.4 27 -2.8 16 16 ENE 9 15 29.97 1015 10 16 0.00 0.00
2:56 am 02:56 Clear 75 23.9 26 -3.3 16 16 NE 12 19 29.96 1015 10 16 0.00 0.00
3:56 am 03:56 Clear 68 20 30 -1.1 24 24 S 8 13 29.99 1016 10 16 0.00 0.00
4:56 am 04:56 Clear 59 15 34 1.1 39 39 S 5 7 30.03 1017 10 16 0.00 0.00
5:56 am 05:56 Clear 58 14.4 34 1.1 41 41 Calm 30.04 1017 10 16 0.00 0.00
6:56 am 06:56 Sunny 60 15.6 35 1.7 39 39 S 3 6 30.05 1018 10 16 0.00 0.00
7:56 am 07:56 Sunny 72 22.2 33 0.6 24 24 E 3 6 30.05 1018 10 16 0.00 0.00
8:56 am 08:56 Sunny 80 26.7 27 -2.8 14 14 ENE 8 13 30.05 1018 10 16 0.00 0.00
9:56 am 09:56 Sunny 86 30 27 -2.8 12 12 NE 16 26 30.04 1017 10 16 0.00 0.00
10:56 am 10:56 Sunny 91 32.8 29 -1.7 11 11 NNE 13 20 30.03 1017 10 16 0.00 0.00
11:56 am 11:56 Sunny 94 34.4 34 1.1 12 12 VRB 5 7 30.02 1017 10 16 0.00 0.00
12:56 pm 12:56 Mostly Sunny 99 37.2 36 2.2 11 11 undefined N/A 29.97 1015 10 16 0.00 0.00
1:56 pm 13:56 Mostly Sunny 100 37.8 36 2.2 11 11 VRB 7 11 29.96 1014 10 16 0.00 0.00
2:56 pm 14:56 Sunny 98 36.7 36 2.2 11 11 S 3 6 29.94 1014 10 16 0.00 0.00
3:56 pm 15:56 Mostly Sunny 98 36.7 36 2.2 11 11 SE 7 11 29.94 1014 10 16 0.00 0.00
4:56 pm 16:56 Sunny 98 36.7 36 2.2 11 11 NNW 5 7 29.94 1014 10 16 0.00 0.00
5:56 pm 17:56 Partly Cloudy 97 36.1 35 1.7 11 11 WNW 5 7 29.93 1014 10 16 0.00 0.00
6:56 pm 18:56 Sunny 93 33.9 37 2.8 14 14 N 3 6 29.93 1014 10 16 0.00 0.00
7:56 pm 19:56 Clear 84 28.9 37 2.8 19 19 WSW 3 6 29.94 1014 10 16 0.00 0.00
8:56 pm 20:56 Clear 81 27.2 38 3.3 21 21 Calm 29.95 1014 10 16 0.00 0.00
9:56 pm 21:56 Clear 79 26.1 36 2.2 21 21 Calm 29.96 1015 10 16 0.00 0.00
10:56 pm 22:56 Clear 76 24.4 39 3.9 26 26 E 6 9 29.97 1015 10 16 0.00 0.00
11:56 pm 23:56 Clear 70 21.1 37 2.8 30 30 Calm 29.98 1015 10 16 0.00 0.00

Powered by AerisWeather